Regional Weather Roundup
Issued by NWS

Home | Current Version | Previous Version | Graphics & Text | Print | Product List | Glossary On
Versions: 1 2 3 4 5 6 7 8 9 10 11 12 13 14 15 16 17 18 19 20 21 22 23 24 25 26 27 28 29 30 31 32 33 34 35 36 37 38 39 40 41 42 43 44 45 46 47 48 49 50
000
ASUS43 KLOT 012100
RWRIL

ILLINOIS REGIONAL WEATHER ROUNDUP
NATIONAL WEATHER SERVICE CHICAGO/ROMEOVILLE IL
400 PM CDT MON JUN 01 2015

NOTE: "FAIR" INDICATES FEW OR NO CLOUDS BELOW 12,000 FEET WITH NO
SIGNIFICANT WEATHER AND/OR OBSTRUCTIONS TO VISIBILITY.

* THESE STATIONS ARE NOT UNDER NWS QUALITY CONTROL. THEY ALSO MAY NOT
  REPORT WEATHER SUCH AS PRECIPITATION OR FOG.

ILZ001-002-007-009-015-016-024-012200-
NORTHWEST ILLINOIS

CITY           SKY/WX    TMP DP  RH WIND       PRES   REMARKS
MOLINE         CLOUDY    70  49  47 E8        30.16F
STERLING*      SUNNY     70  46  43 E13       30.17F
$$

ILZ003-004-008-010-011-017-018-012200-
NORTH CENTRAL ILLINOIS

CITY           SKY/WX    TMP DP  RH WIND       PRES   REMARKS
ROCKFORD       MOSUNNY   67  44  43 E14       30.20F
$$

ILZ005-006-012>014-019>023-012200-
NORTHEAST ILLINOIS

CITY           SKY/WX    TMP DP  RH WIND       PRES   REMARKS
CHICAGO-OHARE  MOSUNNY   58  39  49 NE15      30.21F
CHICAGO-MIDWAY MOSUNNY   61  44  53 NE14      30.21F
AURORA         SUNNY     65  46  50 E14       30.19F
WAUKEGAN       SUNNY     55  38  52 NE10      30.23F
DUPAGE AIRPORT SUNNY     62  45  53 NE13      30.20S
WHEELING       SUNNY     57  36  45 NE10      30.24F
NORTHERLY ISL    N/A     53  45  74 N9          N/A
$$

LMZ740>746-012200-
SOUTHERN LAKE MICHIGAN

STATION/POSITION SKY/WX   TEMP    WIND        PRES    VSBY  WAVE
                          AIR SEA DIR/SP/G                  HT/PER
                          (F)     (DEG/KT/KT) (MB)    (MI)  (FT/S)
SOUTHERN BUOY              42 39  340/ 10/ 12 1024.1F         1/ 3
HARRISON CRIB              47      10/ 14/ 16   N/A
BURNHAM HARBOR             52     350/ 10/ 13   N/A
CALUMET HARBOR             52      20/  9/ 11   N/A
BURNS HARBOR               50      30/ 14/ 15 1023.7S
MICHIGAN CITY              49     350/ 13/ 15   N/A
MICHIGAN CITY 6N           48 54   10/ 12/ 16   N/A           3/ 3
ST. JOSEPH                 52 55   10/ 14/ 16   N/A           3/ 3
$$

ILZ025>027-034>036-040-047-049-050-058-095>099-012200-
WEST-CENTRAL ILLINOIS

CITY           SKY/WX    TMP DP  RH WIND       PRES   REMARKS
QUINCY         CLOUDY    64  53  67 E8        30.16F
$$

ILZ028>032-037-038-041>044-048-051>054-059>061-012200-
CENTRAL ILLINOIS

CITY           SKY/WX    TMP DP  RH WIND       PRES   REMARKS
DECATUR        CLOUDY    66  55  67 NE12      30.14F
PEORIA         CLOUDY    66  54  65 VRB7      30.18S
SPRINGFIELD    CLOUDY    67  54  63 NE7       30.16S
TAYLORVILLE    NOT AVBL
$$

ILZ033-039-045-046-055>057-062-063-012200-
EAST-CENTRAL ILLINOIS

CITY           SKY/WX    TMP DP  RH WIND       PRES   REMARKS
CHAMPAIGN      PTSUNNY   67  55  65 NE13      30.14F
MATTOON        CLOUDY    64  54  69 E8        30.12F
$$

ILZ079-100>102-012200-
SOUTHWEST ILLINOIS

CITY           SKY/WX    TMP DP  RH WIND       PRES   REMARKS
ALTON          CLOUDY    63  59  88 NE9       30.14F
BELLEVILLE     PTSUNNY   65  57  74 NE7       30.11F
CAHOKIA*       CLOUDY    65  55  70 N8        30.13F
$$

ILZ064>066-069>071-074>076-080>082-084>086-088>090-092>094-012200-
SOUTH-CENTRAL ILLINOIS

CITY           SKY/WX    TMP DP  RH WIND       PRES   REMARKS
CARBONDALE     CLOUDY    63  56  78 N5        30.11F
MARION         CLOUDY    64  57  77 MISG      30.12S
MT. VERNON     CLOUDY    61  52  72 N5        30.13F
$$

ILZ067-068-072-073-078-083-087-091-012200-
SOUTHEAST ILLINOIS

CITY           SKY/WX    TMP DP  RH WIND       PRES   REMARKS
LAWRENCEVILLE  CLOUDY    61  52  72 NE8       30.13F
$$

ABBREVIATIONS USED IN REMARKS
   TC - TEMPERATURE IN CELSIUS
  WCI - WIND CHILL INDEX
   HX - HEAT INDEX
  VSB - VISIBILITY
$$




USA.gov is the U.S. government's official web portal to all federal, state and local government web resources and services.